• In Latvia
  • List of Countries
  • For 7 days
  • Water Temperature
  • Satellite Maps
  • Weather Map
  • Weather Widgets
  • user-avatar
    Login

    Hourly Weather Lagmon

    Today, 22 October, Monday

    Time Temperature Precipitation Wind Pressure Humidity
    00:00 +16°C° 0 mm 2 mps 731 mmHg 28%
    01:00 +16°C° 0 mm 2 mps 730 mmHg 28%
    02:00 +16°C° 0 mm 2 mps 730 mmHg 29%
    03:00 +15°C° 0 mm 2 mps 730 mmHg 29%
    04:00 +15°C° 0 mm 2 mps 730 mmHg 29%
    05:00 +16°C° 0 mm 2 mps 730 mmHg 29%
    06:00 +16°C° 0 mm 2 mps 731 mmHg 28%
    07:00 +17°C° 0 mm 2 mps 731 mmHg 27%
    08:00 +19°C° 0 mm 2 mps 731 mmHg 23%
    09:00 +23°C° 0 mm 2 mps 731 mmHg 19%
    10:00 +25°C° 0 mm 1 mps 731 mmHg 16%
    11:00 +26°C° 0 mm 1 mps 731 mmHg 15%
    12:00 +27°C° 0 mm 1 mps 730 mmHg 14%
    13:00 +27°C° 0 mm 1 mps 730 mmHg 12%
    14:00 +27°C° 0 mm 1 mps 730 mmHg 14%
    15:00 +26°C° 0 mm 1 mps 730 mmHg 15%
    16:00 +24°C° 0 mm 1 mps 729 mmHg 17%
    17:00 +23°C° 0 mm 1 mps 730 mmHg 18%
    18:00 +21°C° 0 mm 1 mps 730 mmHg 19%
    19:00 +19°C° 0 mm 2 mps 730 mmHg 20%
    20:00 +19°C° 0 mm 2 mps 730 mmHg 20%
    21:00 +18°C° 0 mm 2 mps 729 mmHg 20%
    22:00 +18°C° 0 mm 2 mps 729 mmHg 21%
    23:00 +18°C° 0 mm 2 mps 729 mmHg 22%

    Tomorrow, 23 October, Tuesday

    Time Temperature Precipitation Wind Pressure Humidity
    00:00 +17°C° 0 mm 2 mps 729 mmHg 22%
    01:00 +17°C° 0 mm 2 mps 729 mmHg 23%
    02:00 +16°C° 0 mm 2 mps 729 mmHg 23%
    03:00 +16°C° 0 mm 2 mps 729 mmHg 24%
    04:00 +16°C° 0 mm 2 mps 729 mmHg 24%
    05:00 +16°C° 0 mm 2 mps 730 mmHg 24%
    06:00 +17°C° 0 mm 2 mps 730 mmHg 23%
    07:00 +17°C° 0 mm 2 mps 730 mmHg 22%
    08:00 +20°C° 0 mm 2 mps 730 mmHg 19%
    09:00 +23°C° 0 mm 1 mps 730 mmHg 17%
    10:00 +25°C° 0 mm 1 mps 731 mmHg 14%
    11:00 +26°C° 0 mm 1 mps 730 mmHg 13%
    12:00 +27°C° 0 mm 1 mps 730 mmHg 12%
    13:00 +27°C° 0 mm 1 mps 730 mmHg 11%
    14:00 +27°C° 0 mm 1 mps 730 mmHg 12%
    15:00 +26°C° 0 mm 1 mps 730 mmHg 13%
    16:00 +25°C° 0 mm 1 mps 729 mmHg 14%
    17:00 +24°C° 0 mm 1 mps 729 mmHg 15%
    18:00 +21°C° 0 mm 2 mps 729 mmHg 16%
    19:00 +20°C° 0 mm 2 mps 729 mmHg 18%
    20:00 +20°C° 0 mm 2 mps 729 mmHg 18%
    21:00 +19°C° 0 mm 2 mps 729 mmHg 18%
    22:00 +19°C° 0 mm 2 mps 729 mmHg 18%
    23:00 +18°C° 0 mm 2 mps 729 mmHg 19%

    Day after tomorrow, 24 October, Wednesday

    Time Temperature Precipitation Wind Pressure Humidity
    00:00 +18°C° 0 mm 2 mps 729 mmHg 20%
    01:00 +17°C° 0 mm 2 mps 728 mmHg 20%
    02:00 +17°C° 0 mm 2 mps 728 mmHg 21%
    03:00 +17°C° 0 mm 2 mps 728 mmHg 22%
    04:00 +17°C° 0 mm 2 mps 728 mmHg 22%
    05:00 +17°C° 0 mm 2 mps 728 mmHg 22%
    06:00 +18°C° 0 mm 2 mps 729 mmHg 22%
    07:00 +18°C° 0 mm 2 mps 729 mmHg 21%
    08:00 +20°C° 0 mm 2 mps 729 mmHg 19%
    09:00 +24°C° 0 mm 2 mps 729 mmHg 16%
    10:00 +26°C° 0 mm 2 mps 729 mmHg 13%
    11:00 +26°C° 0 mm 2 mps 729 mmHg 13%
    12:00 +27°C° 0 mm 2 mps 729 mmHg 12%
    13:00 +28°C° 0 mm 1 mps 728 mmHg 11%
    14:00 +27°C° 0 mm 1 mps 728 mmHg 13%
    15:00 +27°C° 0 mm 1 mps 728 mmHg 14%
    16:00 +26°C° 0 mm 1 mps 728 mmHg 15%
    17:00 +25°C° 0 mm 1 mps 728 mmHg 16%
    18:00 +23°C° 0 mm 1 mps 728 mmHg 17%
    19:00 +22°C° 0 mm 1 mps 728 mmHg 18%
    20:00 +21°C° 0 mm 1 mps 728 mmHg 18%
    21:00 +20°C° 0 mm 2 mps 728 mmHg 19%
    22:00 +19°C° 0 mm 2 mps 728 mmHg 20%
    23:00 +18°C° 0 mm 2 mps 728 mmHg 20%

    25 October, Thursday

    Time Temperature Precipitation Wind Pressure Humidity
    00:00 +18°C° 0 mm 2 mps 728 mmHg 21%
    01:00 +17°C° 0 mm 2 mps 728 mmHg 22%
    02:00 +17°C° 0 mm 2 mps 728 mmHg 22%
    03:00 +17°C° 0 mm 2 mps 728 mmHg 21%
    04:00 +17°C° 0 mm 3 mps 728 mmHg 21%
    05:00 +18°C° 0 mm 3 mps 728 mmHg 21%
    06:00 +18°C° 0 mm 3 mps 728 mmHg 20%
    07:00 +19°C° 0 mm 3 mps 728 mmHg 20%
    08:00 +21°C° 0 mm 3 mps 728 mmHg 17%
    09:00 +25°C° 0 mm 3 mps 728 mmHg 14%
    10:00 +27°C° 0 mm 3 mps 729 mmHg 11%
    11:00 +28°C° 0 mm 3 mps 728 mmHg 11%
    12:00 +29°C° 0 mm 3 mps 728 mmHg 11%
    13:00 +30°C° 0 mm 3 mps 727 mmHg 10%
    14:00 +30°C° 0 mm 3 mps 727 mmHg 12%
    15:00 +29°C° 0 mm 2 mps 727 mmHg 13%
    16:00 +28°C° 0 mm 2 mps 727 mmHg 15%
    17:00 +27°C° 0 mm 3 mps 727 mmHg 16%
    18:00 +25°C° 0 mm 3 mps 727 mmHg 16%
    19:00 +23°C° 0 mm 4 mps 727 mmHg 17%
    20:00 +23°C° 0 mm 4 mps 727 mmHg 17%
    21:00 +22°C° 0 mm 4 mps 727 mmHg 17%
    22:00 +22°C° 0 mm 5 mps 727 mmHg 18%
    23:00 +22°C° 0 mm 5 mps 727 mmHg 17%

    26 October, Friday

    Time Temperature Precipitation Wind Pressure Humidity
    00:00 +23°C° 0 mm 5 mps 727 mmHg 17%
    01:00 +23°C° 0 mm 5 mps 726 mmHg 16%
    02:00 +23°C° 0 mm 5 mps 726 mmHg 16%
    03:00 +23°C° 0 mm 5 mps 726 mmHg 16%
    04:00 +23°C° 0 mm 6 mps 726 mmHg 17%
    05:00 +23°C° 0 mm 6 mps 727 mmHg 17%
    06:00 +25°C° 0 mm 5 mps 727 mmHg 17%
    07:00 +25°C° 0 mm 5 mps 727 mmHg 17%
    08:00 +27°C° 0 mm 7 mps 727 mmHg 15%
    09:00 +31°C° 0 mm 8 mps 728 mmHg 13%
    10:00 +33°C° 0 mm 9 mps 728 mmHg 11%
    11:00 +34°C° 0 mm 9 mps 727 mmHg 11%
    12:00 +35°C° 0 mm 9 mps 727 mmHg 11%
    13:00 +35°C° 0 mm 9 mps 727 mmHg 11%
    14:00 +34°C° 0 mm 8 mps 726 mmHg 12%
    15:00 +34°C° 0 mm 7 mps 726 mmHg 12%
    16:00 +33°C° 0 mm 6 mps 726 mmHg 13%
    17:00 +30°C° 0 mm 6 mps 726 mmHg 14%
    18:00 +29°C° 0 mm 6 mps 726 mmHg 15%
    19:00 +27°C° 0 mm 6 mps 726 mmHg 17%
    20:00 +27°C° 0 mm 6 mps 726 mmHg 17%
    21:00 +27°C° 0 mm 6 mps 726 mmHg 17%
    22:00 +26°C° 0 mm 6 mps 726 mmHg 17%
    23:00 +26°C° 0 mm 6 mps 726 mmHg 17%

    27 October, Saturday

    Time Temperature Precipitation Wind Pressure Humidity
    00:00 +26°C° 0 mm 6 mps 726 mmHg 17%
    01:00 +27°C° 0 mm 7 mps 726 mmHg 17%
    02:00 +27°C° 0 mm 7 mps 726 mmHg 17%
    03:00 +27°C° 0 mm 7 mps 726 mmHg 16%
    04:00 +27°C° 0 mm 7 mps 726 mmHg 16%
    05:00 +27°C° 0 mm 7 mps 726 mmHg 16%
    06:00 +27°C° 0 mm 8 mps 726 mmHg 16%
    07:00 +28°C° 0 mm 8 mps 727 mmHg 16%
    08:00 +31°C° 0 mm 9 mps 727 mmHg 14%
    09:00 +33°C° 0 mm 9 mps 727 mmHg 13%
    10:00 +36°C° 0 mm 10 mps 727 mmHg 12%
    11:00 +36°C° 0 mm 10 mps 727 mmHg 12%
    12:00 +37°C° 0 mm 9 mps 727 mmHg 12%
    13:00 +37°C° 0 mm 9 mps 727 mmHg 12%
    14:00 +34°C° 0 mm 8 mps 727 mmHg 17%
    15:00 +32°C° 0 mm 7 mps 727 mmHg 22%
    16:00 +29°C° 0 mm 6 mps 728 mmHg 27%
    17:00 +28°C° 0.2 mm 6 mps 728 mmHg 35%
    18:00 +26°C° 0.2 mm 6 mps 729 mmHg 42%
    19:00 +24°C° 0.2 mm 6 mps 730 mmHg 50%
    20:00 +23°C° 0.9 mm 6 mps 731 mmHg 55%
    21:00 +22°C° 0.9 mm 6 mps 731 mmHg 59%
    22:00 +21°C° 0.9 mm 6 mps 732 mmHg 64%
    23:00 +20°C° 1.1 mm 6 mps 732 mmHg 68%

    28 October, Sunday

    Time Temperature Precipitation Wind Pressure Humidity
    00:00 +18°C° 1.1 mm 7 mps 733 mmHg 72%
    01:00 +17°C° 1.1 mm 8 mps 734 mmHg 76%
    02:00 +16°C° 1.8 mm 7 mps 734 mmHg 75%
    03:00 +15°C° 1.8 mm 7 mps 735 mmHg 74%
    04:00 +15°C° 1.8 mm 7 mps 736 mmHg 74%
    05:00 +14°C° 0.4 mm 6 mps 736 mmHg 70%
    06:00 +14°C° 0.4 mm 6 mps 737 mmHg 66%
    07:00 +14°C° 0.4 mm 5 mps 738 mmHg 62%
    08:00 +14°C° 0 mm 5 mps 738 mmHg 58%
    09:00 +15°C° 0 mm 5 mps 739 mmHg 54%
    10:00 +15°C° 0 mm 5 mps 739 mmHg 50%
    11:00 +16°C° 0 mm 6 mps 739 mmHg 46%
    12:00 +16°C° 0 mm 6 mps 739 mmHg 41%
    13:00 +17°C° 0 mm 6 mps 739 mmHg 36%
    14:00 +17°C° 0 mm 6 mps 739 mmHg 36%
    15:00 +17°C° 0 mm 6 mps 739 mmHg 36%
    16:00 +17°C° 0 mm 7 mps 739 mmHg 36%
    17:00 +16°C° 0 mm 7 mps 740 mmHg 39%
    18:00 +15°C° 0 mm 7 mps 740 mmHg 41%
    19:00 +15°C° 0 mm 7 mps 740 mmHg 44%
    20:00 +14°C° 0 mm 7 mps 740 mmHg 44%
    21:00 +12°C° 0 mm 7 mps 739 mmHg 44%
    22:00 +12°C° 0 mm 7 mps 739 mmHg 43%
    23:00 +12°C° 0 mm 7 mps 739 mmHg 44%
    Show more